Погода в Куопио

Финляндия     62°53′31″N   27°40′17″E
темп.,
°C
ветер,
м/с
пор.,
м/с
влажн.,
%
обл.,
%
осадки,
мм/ч
давл.,
гПа
погр.,
м
13 апреля, вт
вт1300:00+4ю3694100 0.1 101683
03:00+3ююв3396100 0.1 101550
06:00+3ю3599100 0.1 101567
09:00+3юз35100100 1.3 101588
12:00+3зюз3688100 0.3 1016163
15:00+4з3677100 0.3 1017357
18:00+4юз2483100 0.0 101797
21:00+2ююз348895 0.1 101742
14 апреля, ср
ср1400:00+1юз368895 0.0 101787
03:00−1юз2490100 0.0 101763
06:00−2юз36925 0.0 101798
09:00+1з588315 0.0 1017437
12:00+1з4782100 0.1 1019526
15:00+3з366889 0.2 1020470
18:00+3зсз36685 0.0 1022366
21:000зсз34812 0.0 102546
15 апреля, чт
чт1500:00−2сз24925 0.0 102759
03:00−3зсз22955 0.0 102913
06:00−3зсз12965 0.0 103115
09:00−1зсз11814 0.0 103289
12:00+2зюз12661 0.0 1033283
15:00+3ююз12624 0.0 1032364
18:00+3св02654 0.0 1032282
21:00+1ю11724 0.0 103310
16 апреля, пт
пт1600:00+1зюз11765 0.0 103310
03:00−1зсз22830 0.0 103410
06:00−1зсз11860 0.0 103410
09:00+1зсз11811 0.0 103564
12:00+3ссв01743 0.0 1035172
15:00+3св12725 0.0 1035260
18:00+4ссв12725 0.0 1035244
21:00+3ссв22789 0.0 103510
17 апреля, сб
сб1700:00+1всв22885 0.0 103612
03:000всв22925 0.0 103710
06:000всв11930 0.0 103810
09:00+1всв238610 0.0 103882
12:00+3вюв11810 0.0 1038185
15:00+4в01754 0.0 1037260
18:00+4всв01705 0.0 1036209
21:00+3в117325 0.0 103610